STARLINK-35278

Last updated on Mon Oct 20 2025 00:02:08 GMT+0000 (Coordinated Universal Time)

1 65902U 25224W 25292.25002315 -.01397154 00000+0 -63438-2 0 9992 2 65902 53.1508 313.3167 0001012 91.0558 116.6949 15.86042533 3154
UTC large
Height (km)
Speed (km/s)
/
Latitude / Longitude
Inclination (degrees)
Orbital Period (minutes)
Azimuth
Elevation
Range (km)
Doppler Factor

Next 0 passes for location: London (51.5072 / 0.1276)

Sorry there are no passes over London.